Location: Unspecified
(0.0000°N, 0.0000°E)
Time: 05:25:43
(UTC+00:00)

S-56A Canister/Altair - Pass Details

Date: 22 May 2026
Orbit: 633 x 2484 km, 38.9° (Epoch: 7 June)

Event Time Altitude Azimuth Distance (km) Brightness Sun altitude
Exits shadow 03:01:34 31° 148° (SSE) 2,566 10.1 -40.4°
Drops below altitude 10° 03:07:11 10° 139° (SE) 4,286 11.4 -39.2°
Sets 03:11:18 0° 136° (SE) 5,548 12.1 -38.3°
